weather.gov     
National Weather Service

Miscellaneous Local Product
NWS Homepage
This page is being discontinued on March 12, 2014.
The same data is available at this site. Please update your bookmarks.
Thank you, and we apologize for the inconvenience.
Please send an email to SR-SRH.Webmaster@noaa.gov with any concerns.


Current Version
Previous Version:    01  02  03  04  05  06  07  08  09  10  11  12  13  14  15  16  17  18  19  20  21  22  23  24  25  26  27  28  29  30  
   31  32  33  34  35  36  37  38  39  40  41  42  43  44  45  46  47  48  49  50  51  52  53  54  55  56  57  58  59  60  
[Printable]
917
AXUS43 KGID 200802
MISGRI

GID CWA HOURLY WEATHER ROUNDUP
NATIONAL WEATHER SERVICE HASTINGS NE
300 AM CDT WED AUG 20 2014

NOTE: "FAIR" INDICATES FEW OR NO CLOUDS BELOW 12,000 FEET WITH NO
SIGNIFICANT WEATHER AND/OR OBSTRUCTIONS TO VISIBILITY.

...SOUTH CENTRAL NEBRASKA...

CITY           SKY/WX    TMP DP  RH WIND       PRES   REMARKS
GRAND ISLAND   CLOUDY    74  67  78 S9        29.77F
HASTINGS       CLOUDY    73  64  73 S6        29.78F
KEARNEY        CLOUDY    72  66  83 S8        29.79F
ORD            CLOUDY    73  68  84 SE6       29.76F
AURORA         CLOUDY    74  70  87 S7        29.77F
LEXINGTON      CLOUDY    71  66  83 SW7       29.79R
HOLDREGE       CLOUDY    73  65  77 CALM      29.80S
HEBRON         CLOUDY    74  65  73 S7        29.78F

...NEBRASKA PANHANDLE...

CITY           SKY/WX    TMP DP  RH WIND       PRES   REMARKS
CHADRON        CLOUDY    74  53  48 SW7       29.75F
ALLIANCE       MOCLDY    63  55  75 CALM      29.81F
SCOTTSBLUFF    CLOUDY    66  58  75 NE3       29.81F
SIDNEY         CLOUDY    62  58  86 SW6       29.85S

...WESTERN AND NORTH CENTRAL NEBRASKA...

CITY           SKY/WX    TMP DP  RH WIND       PRES   REMARKS
VALENTINE      MOCLDY    71  65  81 SE7       29.77S
AINSWORTH      CLOUDY    70  68  93 SE7       29.77F
ONEILL         CLOUDY    73  68  84 SE13      29.77F
BROKEN BOW     CLOUDY    71  68  90 MISG      29.78F
IMPERIAL       CLOUDY    66  62  87 SE5       29.82F
NORTH PLATTE   CLOUDY    68  64  87 SE9       29.77F
MCCOOK         CLOUDY    72  64  76 E3        29.79F

...EASTERN NEBRASKA...

CITY           SKY/WX    TMP DP  RH WIND       PRES   REMARKS
NORFOLK        CLOUDY    71  66  84 SE8       29.76F
SO SIOUX CITY  CLOUDY    69  66  90 SE5       29.78F
TEKAMAH        CLOUDY    70  66  87 E6        29.77F
COLUMBUS       CLOUDY    70  66  88 E6        29.77F
ALBION         CLOUDY    71  66  85 SE8       29.76F
OMAHA EPPLEY   MOCLDY    74  66  76 SE8       29.77F
OFFUTT AFB     MOCLDY    72  72  99 E7        29.77F
MILLARD        MOCLDY    74  69  82 SE6       29.77F
LINCOLN        CLOUDY    77  70  79 S8        29.77F
NEBRASKA CITY  MOCLDY    72  72 100 SE3       29.79F
BEATRICE       CLOUDY    75  69  79 S9        29.78F
FALLS CITY     PTCLDY    73  70  90 SE3       29.79F

...NORTHERN KANSAS...

CITY           SKY/WX    TMP DP  RH WIND       PRES   REMARKS
GOODLAND       MOCLDY    75  59  57 S13       29.84S
HILL CITY      PTCLDY    77  62  59 SW7       29.80S
NORTON         SUNNY     70  61  73 E5        29.80S
PHILLIPSBURG   CLEAR     73  63  68 CALM      29.80S
SMITH CENTER   CLEAR     73  63  68 S5        29.80R
BELOIT         CLEAR     75  64  69 SE6       29.78S
HAYS           PTCLDY    75  61  60 S16       29.81S
RUSSELL        PTCLDY    78  61  55 S17G26    29.79S
CONCORDIA      MOCLDY    77  67  71 S16       29.79S
SALINA         PTCLDY    78  68  71 S10       29.81S
TOPEKA         CLEAR     80  68  66 S9        29.82S




U.S. Dept. of Commerce
NOAA National Weather Service
1325 East West Highway
Silver Spring, MD 20910
E-mail: w-nws.webmaster@noaa.gov
Page last modified: May 16, 2007
NATIONAL WEATHER SERVICE: for Safety, for Work, for Fun - FOR LIFE